[[{"header":{"parameterUnit":"m.s-1","parameterCategory":2,"la1":30.2991,"la2":30.254,"lo1":-89.0895,"lo2":-89.0444,"dy":0.0017,"dx":0.0017,"nx":28,"ny":28,"refTime":"2025-11-23T09:00:00:Z","depth":"0","parameterNumber":2,"parameterNumberName":"U-component_of_CURRENTS"},"data":[0,0,0,0,0,0,0,0,0,0,0,0,0,0,0,0,0,0,0,0,0,0,0,0,0,0,0,0,0,0,0,0,0,0,0,0,0,0,0,0,0,0,0,0,0,0,0,0,0,0,0,0,0,0,0,0,0,0,0.1568,0.1569,0,0.1612,0.1612,0.1613,0.1621,0.162,0.162,0.162,0.1631,0.1632,0.1632,0,0,0,0,0,0,0,0,0,0,0,0,0,0.1493,0.1494,0.1568,0.1569,0.1569,0.1612,0.1612,0.1613,0.1621,0.162,0.162,0.162,0.1631,0.1632,0.1632,0,0,0,0,0,0,0,0,0,0,0,0,0,0.1529,0.1494,0.1568,0.1579,0.1581,0.1612,0.1612,0.1613,0.1621,0.162,0.162,0.1619,0.1631,0.1632,0.1632,0.1646,0,0,0.1635,0.1635,0,0,0,0,0,0,0,0,0.1527,0.1531,0.1577,0.1578,0.158,0.1611,0.159,0.1623,0.1621,0.1604,0.162,0.1619,0.1622,0.1624,0.1632,0.1646,0.1647,0.1635,0.1636,0.1636,0.1636,0,0,0,0,0,0,0,0.1524,0.153,0.1584,0.1578,0.158,0.1582,0.1587,0.1596,0.1614,0.1606,0.1607,0.1613,0.1623,0.1631,0.1632,0.1647,0.1635,0.1636,0.1636,0.1637,0.1692,0.1693,0,0,0,0,0,0,0.1521,0.1527,0.1583,0.1586,0.1553,0.1584,0.1589,0.1601,0.1614,0.1617,0.1614,0.1614,0.163,0.1631,0.1633,0.1661,0.1636,0.1637,0.1637,0.1691,0.1692,0.1693,0,0,0,0,0,0,0.152,0.1526,0.1581,0.1558,0.1565,0.1586,0.1599,0.1602,0.1613,0.1621,0.1622,0.1622,0.163,0.1632,0.1651,0.1661,0.1637,0.1638,0.169,0.1691,0.1693,0.1711,0,0,0,0,0,0,0.1517,0.1525,0.1533,0.1558,0.1566,0.1603,0.1599,0.1603,0.1618,0.1618,0.1628,0.1629,0.163,0.165,0.1652,0.1662,0.1638,0.1689,0.1691,0.1692,0.1709,0.1713,0.1716,0,0,0,0,0,0.1515,0.1527,0.1533,0.1539,0.1576,0.1604,0.1609,0.1621,0.1619,0.1628,0.1638,0.1629,0.1662,0.1651,0.1653,0.1664,0.1688,0.169,0.1692,0.1707,0.1712,0.1716,0,0,0,0,0,0,0.1496,0.1529,0.1537,0.1558,0.1581,0.1606,0.1616,0.1624,0.164,0.1639,0.1642,0.1644,0.1663,0.1665,0.1653,0.1687,0.1673,0.1676,0.1684,0.1689,0.1692,0.1687,0.1639,0,0,0,0,0,0.1496,0.1514,0.1545,0.1561,0.1573,0.1595,0.1607,0.1618,0.1636,0.1642,0.1649,0.166,0.1675,0.1682,0.1693,0.1713,0.1729,0.1722,0.1726,0.1728,0.1727,0.1739,0.1743,0.1701,0.1701,0.17,0,0,0.1491,0.1513,0.1522,0.1558,0.1575,0.1599,0.1601,0.1624,0.1641,0.1641,0.1662,0.1671,0.1683,0.1705,0.1714,0.1708,0.1761,0.1731,0.1733,0.1731,0.1741,0.1745,0.1749,0.1702,0.1702,0.1702,0,0,0.1494,0.1513,0.153,0.1553,0.1585,0.1601,0.1609,0.1638,0.1649,0.1673,0.1678,0.1695,0.1715,0.1729,0.1738,0.1768,0.1777,0.1772,0.1786,0.1797,0.1801,0.1803,0.1879,0.1889,0.1775,0.1775,0.1775,0,0.1484,0.1516,0.1538,0.1564,0.1582,0.1603,0.1626,0.1644,0.1674,0.1684,0.1681,0.1717,0.1727,0.1757,0.1769,0.1774,0.1801,0.1767,0.1801,0.1803,0.1806,0.1883,0.1892,0.1776,0.1776,0.1776,0.1776,0,0.1506,0.153,0.1542,0.1582,0.1604,0.1627,0.1657,0.1676,0.1688,0.1703,0.173,0.1746,0.1766,0.1776,0.1783,0.181,0.1835,0.1801,0.1786,0.1811,0.1891,0.1901,0.1778,0.1777,0.1777,0.1777,0,0,0.1486,0.1545,0.1549,0.157,0.1616,0.1636,0.1667,0.1701,0.1718,0.1739,0.1763,0.179,0.1793,0.1804,0.1815,0.1828,0.1889,0.1825,0.1825,0.1896,0.1965,0.2157,0.2187,0.1853,0.1853,0.1854,0.2033,0,0.1495,0.154,0.1569,0.1607,0.1633,0.1663,0.1689,0.172,0.1742,0.1769,0.1787,0.1812,0.1806,0.1821,0.1832,0.1872,0.1908,0.1847,0.1935,0.1939,0.21,0.2201,0.226,0.2438,0.2043,0.2044,0.2045,0,0.151,0.154,0.1578,0.1626,0.1639,0.166,0.1703,0.1731,0.1772,0.1788,0.1811,0.1828,0.1877,0.1849,0.1934,0.1895,0.1934,0.196,0.1967,0.214,0.2148,0.234,0.2471,0.2373,0.2061,0.2059,0.2058,0,0.1492,0.1545,0.1574,0.1592,0.1647,0.1663,0.1689,0.1731,0.1769,0.1802,0.1843,0.187,0.1929,0.1941,0.2043,0.1973,0.2156,0.2059,0.2276,0.2291,0.2359,0.2381,0.2398,0.2108,0.2107,0.2107,0.2106,0,0.1497,0.152,0.1565,0.1583,0.1613,0.1652,0.1686,0.1715,0.1775,0.183,0.1852,0.193,0.195,0.2066,0.2084,0.2282,0.2201,0.2323,0.2356,0.2378,0.2398,0.2328,0.2252,0.2113,0.2112,0.2111,0.2109,0,0.1481,0.1513,0.1547,0.1594,0.1609,0.1629,0.1697,0.1725,0.1788,0.1867,0.189,0.2013,0.2186,0.2272,0.2365,0.2406,0.2484,0.2592,0.2673,0.2713,0.2795,0.272,0.2698,0.2605,0.2831,0.2837,0.2842,0,0.1476,0.1492,0.1543,0.1562,0.1584,0.1621,0.1648,0.1715,0.1759,0.1932,0.198,0.2197,0.2375,0.2666,0.2786,0.2946,0.274,0.3064,0.2928,0.2866,0.2801,0.2591,0.2492,0.3033,0.3039,0.3044,0.3048,0,0.1462,0.148,0.1509,0.1545,0.1573,0.1614,0.1664,0.1717,0.1814,0.1944,0.2156,0.2332,0.268,0.2925,0.3189,0.3259,0.2955,0.3177,0.3046,0.2944,0.2775,0.2681,0.2879,0.3093,0.3088,0.3085,0.3083,0.3081,0.1446,0.1459,0.1493,0.1534,0.1563,0.1611,0.1655,0.1743,0.1879,0.2087,0.2254,0.2564,0.2931,0.3347,0.3389,0.3524,0.3315,0.3432,0.3349,0.3142,0.3039,0.3408,0.3695,0.3694,0.3693,0.3692,0.3692,0,0.1433,0.1457,0.1482,0.1528,0.1561,0.1588,0.1669,0.1736,0.1911,0.2163,0.24,0.2895,0.3229,0.3459,0.3733,0.3664,0.3415,0.3564,0.3202,0.3089,0.3394,0.3392,0.3705,0.3705,0.3705,0.3705,0.3705,0.3705,0.1427,0.1452,0.1474,0.1522,0.1559,0.1615,0.1676,0.1794,0.1973,0.2332,0.264,0.288,0.3289,0.367,0.3728,0.3661,0.3262,0.3266,0.306,0.3225,0.3199,0.3175,0.3151,0.3408,0.3408,0.2663,0.2658,0.2654]},{"header":{"parameterUnit":"m.s-1","parameterCategory":2,"la1":30.2991,"la2":30.254,"lo1":-89.0895,"lo2":-89.0444,"dy":0.0017,"dx":0.0017,"nx":28,"ny":28,"refTime":"2025-11-23T09:00:00:Z","depth":"0","parameterNumber":3,"parameterNumberName":"V-component_of_CURRENTS"},"data":[0,0,0,0,0,0,0,0,0,0,0,0,0,0,0,0,0,0,0,0,0,0,0,0,0,0,0,0,0,0,0,0,0,0,0,0,0,0,0,0,0,0,0,0,0,0,0,0,0,0,0,0,0,0,0,0,0,0,-0.0822,-0.0823,0,-0.0904,-0.0905,-0.0906,-0.0951,-0.0951,-0.0951,-0.0951,-0.1079,-0.1082,-0.1086,0,0,0,0,0,0,0,0,0,0,0,0,0,-0.0748,-0.0749,-0.0822,-0.0823,-0.0824,-0.0904,-0.0905,-0.0907,-0.0951,-0.0951,-0.0951,-0.0951,-0.1078,-0.1082,-0.1086,0,0,0,0,0,0,0,0,0,0,0,0,0,-0.0801,-0.0749,-0.0822,-0.0854,-0.0858,-0.0904,-0.0905,-0.0907,-0.0951,-0.0951,-0.0951,-0.0951,-0.1076,-0.1081,-0.1087,-0.112,0,0,-0.1102,-0.1105,0,0,0,0,0,0,0,0,-0.0798,-0.0804,-0.0849,-0.0852,-0.0856,-0.0916,-0.0926,-0.098,-0.0951,-0.0917,-0.0951,-0.0951,-0.1028,-0.1037,-0.1054,-0.1126,-0.1132,-0.1103,-0.1106,-0.1108,-0.111,0,0,0,0,0,0,0,-0.0794,-0.0801,-0.0856,-0.0849,-0.0854,-0.088,-0.0887,-0.0937,-0.0974,-0.092,-0.0923,-0.093,-0.103,-0.1049,-0.1058,-0.1134,-0.1103,-0.1107,-0.1111,-0.1113,-0.1224,-0.1224,0,0,0,0,0,0,-0.0779,-0.0798,-0.0854,-0.0858,-0.0825,-0.0881,-0.0889,-0.0898,-0.0973,-0.0983,-0.093,-0.0931,-0.104,-0.1051,-0.1062,-0.1097,-0.1108,-0.1113,-0.1116,-0.1225,-0.1224,-0.1224,0,0,0,0,0,0,-0.0777,-0.0783,-0.085,-0.0828,-0.0838,-0.0882,-0.0892,-0.09,-0.0917,-0.0979,-0.0991,-0.0938,-0.1041,-0.1055,-0.1105,-0.1103,-0.1115,-0.112,-0.1225,-0.1224,-0.1224,-0.1172,0,0,0,0,0,0,-0.0775,-0.0782,-0.0785,-0.0827,-0.0839,-0.0873,-0.0892,-0.0901,-0.092,-0.0923,-0.099,-0.1002,-0.1042,-0.1096,-0.111,-0.111,-0.1124,-0.1225,-0.1225,-0.1224,-0.1174,-0.1171,-0.1167,0,0,0,0,0,-0.0772,-0.0776,-0.0785,-0.0791,-0.0841,-0.0873,-0.0882,-0.0913,-0.092,-0.0928,-0.0972,-0.1,-0.1104,-0.1101,-0.1117,-0.1118,-0.1225,-0.1225,-0.1224,-0.1176,-0.1171,-0.1167,0,0,0,0,0,0,-0.0748,-0.0782,-0.0792,-0.0808,-0.0834,-0.088,-0.0892,-0.0909,-0.095,-0.0954,-0.1008,-0.1024,-0.1064,-0.1098,-0.1094,-0.1148,-0.1165,-0.1168,-0.1123,-0.1119,-0.1116,-0.1117,-0.1129,0,0,0,0,0,-0.0742,-0.0754,-0.0789,-0.08,-0.0812,-0.0849,-0.0866,-0.0885,-0.0925,-0.0942,-0.0986,-0.1032,-0.1075,-0.1102,-0.1145,-0.1183,-0.1207,-0.119,-0.1186,-0.1183,-0.1194,-0.1237,-0.1238,-0.1223,-0.1223,-0.1223,0,0,-0.0736,-0.0756,-0.0763,-0.0796,-0.082,-0.084,-0.086,-0.0882,-0.0899,-0.0951,-0.0989,-0.1025,-0.1082,-0.112,-0.114,-0.1149,-0.1192,-0.1183,-0.118,-0.1193,-0.1236,-0.1238,-0.1239,-0.1223,-0.1223,-0.1223,0,0,-0.0731,-0.0747,-0.0755,-0.0776,-0.0806,-0.0829,-0.0831,-0.0872,-0.0891,-0.0928,-0.0965,-0.1,-0.1068,-0.1105,-0.1134,-0.1139,-0.1171,-0.1145,-0.1134,-0.1174,-0.1176,-0.1178,-0.1174,-0.1176,-0.1144,-0.1144,-0.1144,0,-0.0719,-0.074,-0.0762,-0.0777,-0.0794,-0.0821,-0.0835,-0.086,-0.0909,-0.093,-0.0933,-0.1025,-0.1063,-0.1117,-0.1112,-0.1132,-0.1147,-0.1144,-0.1169,-0.1172,-0.1175,-0.1171,-0.1174,-0.1141,-0.1142,-0.1142,-0.1142,0,-0.0725,-0.074,-0.0747,-0.0774,-0.0792,-0.0809,-0.084,-0.0859,-0.0879,-0.0908,-0.0957,-0.1005,-0.1063,-0.1068,-0.1095,-0.1132,-0.1131,-0.1158,-0.1179,-0.1174,-0.1169,-0.1173,-0.1138,-0.1139,-0.1139,-0.114,0,0,-0.07,-0.0742,-0.0744,-0.0755,-0.0792,-0.0807,-0.0832,-0.0869,-0.0885,-0.0925,-0.0955,-0.1014,-0.1037,-0.1071,-0.1102,-0.1129,-0.1141,-0.1148,-0.1151,-0.114,-0.12,-0.1117,-0.1113,-0.1176,-0.1177,-0.1178,-0.1174,0,-0.0697,-0.072,-0.0746,-0.0764,-0.0778,-0.081,-0.0832,-0.0866,-0.0893,-0.0924,-0.0974,-0.1008,-0.104,-0.1053,-0.1094,-0.1132,-0.1156,-0.1138,-0.1211,-0.1213,-0.1138,-0.1117,-0.104,-0.1024,-0.1178,-0.1179,-0.118,0,-0.0694,-0.0711,-0.0729,-0.0762,-0.077,-0.0782,-0.0817,-0.0841,-0.0891,-0.0912,-0.0962,-0.0997,-0.1045,-0.1064,-0.1144,-0.1132,-0.1167,-0.1192,-0.1193,-0.1144,-0.1139,-0.1064,-0.1027,-0.1201,-0.1187,-0.1186,-0.1185,0,-0.0663,-0.0697,-0.0709,-0.0721,-0.0762,-0.0771,-0.0791,-0.0835,-0.0832,-0.0895,-0.0877,-0.0982,-0.0975,-0.1076,-0.111,-0.114,-0.1173,-0.1225,-0.1184,-0.1177,-0.1141,-0.1128,-0.1282,-0.129,-0.129,-0.129,-0.129,0,-0.065,-0.0656,-0.0692,-0.0697,-0.0697,-0.0742,-0.074,-0.0774,-0.0794,-0.0747,-0.0859,-0.0809,-0.0975,-0.1001,-0.1096,-0.112,-0.1165,-0.1175,-0.1177,-0.1114,-0.11,-0.1274,-0.1395,-0.129,-0.129,-0.129,-0.129,0,-0.0605,-0.0638,-0.0641,-0.0676,-0.0679,-0.0673,-0.0666,-0.065,-0.0686,-0.062,-0.062,-0.0667,-0.0685,-0.0826,-0.0941,-0.1038,-0.1188,-0.1115,-0.0999,-0.0987,-0.1134,-0.1253,-0.1402,-0.1489,-0.11,-0.1098,-0.1096,0,-0.058,-0.0583,-0.0597,-0.0574,-0.058,-0.0574,-0.0548,-0.0587,-0.0536,-0.0482,-0.0414,-0.0426,-0.0356,-0.0506,-0.0702,-0.086,-0.1064,-0.0921,-0.0981,-0.1123,-0.126,-0.1356,-0.1428,-0.0902,-0.0899,-0.0896,-0.0894,0,-0.0519,-0.0526,-0.0521,-0.0472,-0.0438,-0.0399,-0.0354,-0.0289,-0.0276,-0.0179,-0.0017,0.0042,-0.0087,-0.0169,-0.0423,-0.0581,-0.1042,-0.0871,-0.1076,-0.116,-0.1222,-0.131,-0.0903,-0.0871,-0.0874,-0.0875,-0.0877,-0.0878,-0.045,-0.042,-0.0398,-0.0338,-0.0289,-0.0184,-0.0088,0.0004,0.0156,0.0366,0.0353,0.0551,0.0308,-0.0003,-0.029,-0.0766,-0.0843,-0.0912,-0.1052,-0.114,-0.1216,-0.0725,-0.0662,-0.0663,-0.0664,-0.0665,-0.0666,0,-0.0342,-0.0307,-0.0255,-0.0159,-0.0042,-0.0063,0.0087,0.0229,0.0501,0.069,0.0877,0.0983,0.0633,0.0177,-0.0446,-0.0849,-0.1081,-0.1116,-0.1285,-0.1359,-0.0958,-0.0941,-0.0866,-0.0866,-0.0866,-0.0866,-0.0866,-0.0865,-0.0279,-0.0191,-0.0159,0.0065,0.0149,0.034,0.0459,0.0666,0.0848,0.1222,0.1444,0.156,0.1271,-0.0004,-0.0903,-0.1151,-0.1524,-0.1557,-0.1779,-0.1552,-0.1546,-0.1541,-0.1555,-0.161,-0.1611,-0.2109,-0.2114,-0.2118]}],[{"header":{"parameterUnit":"m.s-1","parameterCategory":2,"la1":30.2991,"la2":30.254,"lo1":-89.0895,"lo2":-89.0444,"dy":0.0017,"dx":0.0017,"nx":28,"ny":28,"refTime":"2025-11-23T09:00:00:Z","depth":"2","parameterNumber":2,"parameterNumberName":"U-component_of_CURRENTS"},"data":[0,0,0,0,0,0,0,0,0,0,0,0,0,0,0,0,0,0,0,0,0,0,0,0,0,0,0,0,0,0,0,0,0,0,0,0,0,0,0,0,0,0,0,0,0,0,0,0,0,0,0,0,0,0,0,0,0,0,0.1443,0.1443,0,0.1492,0.1492,0.1493,0.1508,0.1508,0.1508,0.1508,0.1505,0.1505,0.1505,0,0,0,0,0,0,0,0,0,0,0,0,0,0.136,0.1361,0.1443,0.1443,0.1444,0.1492,0.1492,0.1493,0.1508,0.1508,0.1508,0.1508,0.1505,0.1505,0.1505,0,0,0,0,0,0,0,0,0,0,0,0,0,0.14,0.1362,0.1442,0.1458,0.1461,0.1492,0.1492,0.1493,0.1508,0.1508,0.1508,0.1508,0.1505,0.1505,0.1505,0.1508,0,0,0.1505,0.1505,0,0,0,0,0,0,0,0,0.1398,0.1403,0.1455,0.1457,0.146,0.1495,0.1463,0.1496,0.1508,0.1488,0.1508,0.1508,0.1498,0.1499,0.1507,0.1508,0.1508,0.1505,0.1505,0.1505,0.1505,0,0,0,0,0,0,0,0.1395,0.1401,0.1461,0.1456,0.1459,0.1463,0.1468,0.1469,0.1491,0.149,0.1492,0.15,0.1499,0.1507,0.1507,0.1508,0.1505,0.1505,0.1505,0.1505,0.1542,0.1543,0,0,0,0,0,0,0.1392,0.1398,0.1459,0.1462,0.1429,0.1465,0.1471,0.1483,0.1492,0.1495,0.15,0.15,0.1507,0.1507,0.1507,0.1529,0.1505,0.1505,0.1505,0.1541,0.1542,0.1543,0,0,0,0,0,0,0.139,0.1397,0.1457,0.1432,0.144,0.1466,0.148,0.1484,0.1497,0.1501,0.1502,0.151,0.1507,0.1506,0.1518,0.1528,0.1505,0.1505,0.154,0.1541,0.1543,0.1562,0,0,0,0,0,0,0.1388,0.1396,0.1404,0.1432,0.1442,0.1481,0.148,0.1485,0.1503,0.1504,0.151,0.1509,0.1506,0.1518,0.1518,0.1528,0.1505,0.1539,0.154,0.1542,0.156,0.1564,0.1567,0,0,0,0,0,0.1385,0.1396,0.1405,0.1412,0.1452,0.1481,0.1486,0.1503,0.1504,0.1513,0.152,0.1509,0.153,0.1519,0.1519,0.1529,0.1538,0.154,0.1542,0.1559,0.1563,0.1567,0,0,0,0,0,0,0.1361,0.14,0.1409,0.1431,0.1457,0.1484,0.1496,0.1507,0.152,0.152,0.1519,0.152,0.1534,0.1532,0.152,0.1547,0.1533,0.1535,0.1546,0.155,0.1553,0.1557,0.1505,0,0,0,0,0,0.1361,0.1381,0.1415,0.1432,0.1446,0.1471,0.1485,0.1499,0.1516,0.1522,0.1527,0.1533,0.1543,0.1546,0.1552,0.1564,0.1592,0.1573,0.1576,0.1579,0.1584,0.1619,0.1627,0.155,0.155,0.155,0,0,0.1355,0.138,0.139,0.1429,0.1449,0.1473,0.1479,0.1504,0.1523,0.1518,0.1539,0.1544,0.1549,0.1566,0.1572,0.1564,0.1625,0.1582,0.1584,0.1587,0.1622,0.163,0.1636,0.1552,0.1551,0.1551,0,0,0.1354,0.1377,0.1394,0.1419,0.1456,0.1475,0.1484,0.1516,0.153,0.1551,0.1555,0.1569,0.1579,0.159,0.1595,0.1622,0.1642,0.1624,0.1644,0.1678,0.1685,0.1691,0.1778,0.1791,0.1626,0.1626,0.1626,0,0.1343,0.1376,0.1402,0.1428,0.145,0.1477,0.1501,0.152,0.1551,0.1568,0.156,0.1595,0.1592,0.1622,0.163,0.1629,0.167,0.1624,0.1683,0.1689,0.1694,0.1782,0.1796,0.1627,0.1627,0.1627,0.1627,0,0.1361,0.1387,0.14,0.1443,0.1468,0.1494,0.1528,0.1551,0.1567,0.1589,0.1621,0.1625,0.1649,0.1649,0.1644,0.1686,0.1713,0.1682,0.167,0.1703,0.1794,0.1809,0.1629,0.1628,0.1628,0.1628,0,0,0.1336,0.1399,0.1405,0.143,0.1481,0.1505,0.1539,0.1584,0.1616,0.1634,0.1676,0.1684,0.1693,0.17,0.1701,0.1724,0.1805,0.1721,0.1722,0.1806,0.1931,0.1945,0.1963,0.1782,0.1783,0.1785,0.1994,0,0.1343,0.1392,0.1422,0.1466,0.1496,0.1534,0.1566,0.1608,0.1642,0.1688,0.1703,0.1735,0.1712,0.1727,0.1748,0.179,0.1839,0.1755,0.1888,0.1893,0.1898,0.1977,0.1807,0.1977,0.2008,0.2011,0.2013,0,0.1353,0.1387,0.1431,0.1492,0.1508,0.1533,0.1601,0.1635,0.1701,0.1727,0.1766,0.1787,0.1841,0.1799,0.1906,0.1857,0.19,0.1927,0.1935,0.1945,0.1932,0.1941,0.2003,0.2037,0.2035,0.2034,0.2032,0,0.1334,0.1395,0.1431,0.1452,0.1519,0.1544,0.158,0.1645,0.169,0.1758,0.1809,0.186,0.1913,0.1952,0.2036,0.197,0.2171,0.2084,0.2149,0.2154,0.2034,0.2024,0.2159,0.2159,0.2159,0.2158,0.2158,0,0.1336,0.1365,0.1424,0.1443,0.1486,0.1536,0.1589,0.1633,0.1715,0.1791,0.1828,0.1921,0.1949,0.2069,0.2097,0.2216,0.2236,0.2186,0.2206,0.2042,0.203,0.208,0.2068,0.2166,0.2164,0.2163,0.2161,0,0.1312,0.1353,0.1394,0.1458,0.1477,0.1507,0.159,0.164,0.1718,0.1826,0.1856,0.1997,0.2151,0.2226,0.2338,0.2321,0.2406,0.2442,0.2284,0.2279,0.2346,0.2333,0.2503,0.2505,0.2507,0.2508,0.251,0,0.1304,0.1323,0.1388,0.1414,0.1442,0.1494,0.1537,0.1622,0.1694,0.1894,0.1963,0.2145,0.2253,0.2462,0.2492,0.2577,0.2561,0.2451,0.2257,0.2378,0.2381,0.2365,0.2349,0.2134,0.2132,0.213,0.2129,0,0.1282,0.1304,0.1339,0.1389,0.1434,0.1491,0.157,0.1624,0.176,0.1844,0.2025,0.2121,0.2352,0.237,0.25,0.2507,0.2405,0.2421,0.2611,0.2063,0.2044,0.2042,0.2036,0.2115,0.2117,0.2118,0.2119,0.2119,0.1257,0.1276,0.1321,0.1363,0.1422,0.149,0.152,0.1609,0.1693,0.1823,0.199,0.2079,0.219,0.2279,0.2295,0.231,0.242,0.2277,0.2276,0.2278,0.2187,0.217,0.2254,0.2256,0.2258,0.2259,0.2261,0,0.1218,0.1257,0.1296,0.1354,0.1395,0.1446,0.1545,0.1544,0.16,0.1749,0.1842,0.1794,0.1873,0.2,0.2002,0.2028,0.1935,0.1949,0.1795,0.1814,0.183,0.1708,0.1652,0.165,0.1647,0.1645,0,0,0.1206,0.1223,0.1245,0.1301,0.1352,0.1392,0.1434,0.1415,0.1486,0.1499,0.1557,0.1754,0.1913,0.1726,0.1754,0.17,0.1719,0.1642,0.2141,0.1977,0.1988,0.2051,0.1891,0,0,0,0,0]},{"header":{"parameterUnit":"m.s-1","parameterCategory":2,"la1":30.2991,"la2":30.254,"lo1":-89.0895,"lo2":-89.0444,"dy":0.0017,"dx":0.0017,"nx":28,"ny":28,"refTime":"2025-11-23T09:00:00:Z","depth":"2","parameterNumber":3,"parameterNumberName":"V-component_of_CURRENTS"},"data":[0,0,0,0,0,0,0,0,0,0,0,0,0,0,0,0,0,0,0,0,0,0,0,0,0,0,0,0,0,0,0,0,0,0,0,0,0,0,0,0,0,0,0,0,0,0,0,0,0,0,0,0,0,0,0,0,0,0,-0.0233,-0.0234,0,-0.0309,-0.031,-0.0311,-0.0366,-0.0367,-0.0367,-0.0368,-0.042,-0.0421,-0.0421,0,0,0,0,0,0,0,0,0,0,0,0,0,-0.0178,-0.0178,-0.0233,-0.0234,-0.0235,-0.0309,-0.031,-0.0311,-0.0366,-0.0367,-0.0368,-0.0368,-0.042,-0.0421,-0.0422,0,0,0,0,0,0,0,0,0,0,0,0,0,-0.022,-0.0178,-0.0233,-0.0274,-0.0278,-0.0309,-0.031,-0.0311,-0.0366,-0.0367,-0.0368,-0.0369,-0.0419,-0.0421,-0.0422,-0.0408,0,0,-0.0425,-0.0426,0,0,0,0,0,0,0,0,-0.0218,-0.0222,-0.0266,-0.0271,-0.0276,-0.0331,-0.031,-0.0343,-0.0365,-0.033,-0.0368,-0.0369,-0.0389,-0.0393,-0.0402,-0.0411,-0.0413,-0.0425,-0.0426,-0.0426,-0.0427,0,0,0,0,0,0,0,-0.0214,-0.0219,-0.0261,-0.0268,-0.0274,-0.0303,-0.0309,-0.0316,-0.035,-0.0333,-0.0338,-0.035,-0.0391,-0.04,-0.0403,-0.0414,-0.0425,-0.0426,-0.0427,-0.0427,-0.0468,-0.0468,0,0,0,0,0,0,-0.0206,-0.0216,-0.0259,-0.0263,-0.0251,-0.0303,-0.031,-0.0311,-0.0351,-0.0359,-0.0349,-0.0352,-0.0398,-0.0402,-0.0405,-0.043,-0.0426,-0.0427,-0.0428,-0.0467,-0.0468,-0.0468,0,0,0,0,0,0,-0.0205,-0.0209,-0.0256,-0.0244,-0.0252,-0.0302,-0.0303,-0.0312,-0.0335,-0.0364,-0.0371,-0.0365,-0.0399,-0.0404,-0.0413,-0.0431,-0.0428,-0.0429,-0.0467,-0.0467,-0.0468,-0.0455,0,0,0,0,0,0,-0.0202,-0.0207,-0.021,-0.0243,-0.0253,-0.0271,-0.0303,-0.0312,-0.0341,-0.0346,-0.038,-0.0385,-0.04,-0.0411,-0.0414,-0.0433,-0.043,-0.0466,-0.0467,-0.0468,-0.0455,-0.0455,-0.0455,0,0,0,0,0,-0.02,-0.0192,-0.021,-0.0216,-0.0253,-0.0271,-0.0277,-0.0316,-0.0341,-0.0342,-0.0366,-0.0385,-0.0419,-0.0411,-0.0415,-0.0434,-0.0466,-0.0467,-0.0468,-0.0455,-0.0455,-0.0455,0,0,0,0,0,0,-0.0169,-0.0198,-0.0218,-0.022,-0.0245,-0.0281,-0.029,-0.0318,-0.0339,-0.0349,-0.0377,-0.0382,-0.04,-0.0415,-0.0406,-0.045,-0.0451,-0.0452,-0.044,-0.044,-0.044,-0.0427,-0.0431,0,0,0,0,0,-0.0163,-0.0167,-0.0199,-0.0203,-0.0213,-0.0254,-0.0271,-0.0296,-0.0319,-0.0332,-0.0357,-0.0385,-0.0404,-0.0419,-0.0432,-0.0448,-0.0454,-0.0467,-0.0468,-0.0467,-0.046,-0.0482,-0.0483,-0.0471,-0.0471,-0.0471,0,0,-0.0154,-0.0172,-0.0175,-0.0198,-0.0221,-0.0229,-0.0266,-0.0286,-0.0301,-0.0331,-0.0355,-0.0379,-0.0406,-0.0425,-0.0437,-0.0442,-0.0474,-0.0469,-0.0468,-0.0461,-0.0483,-0.0484,-0.0485,-0.0472,-0.0472,-0.0471,0,0,-0.013,-0.015,-0.0145,-0.0161,-0.0194,-0.0217,-0.0224,-0.0262,-0.0287,-0.031,-0.0339,-0.0368,-0.0401,-0.0424,-0.0441,-0.0448,-0.0468,-0.0465,-0.0462,-0.0484,-0.0485,-0.0486,-0.049,-0.0491,-0.0473,-0.0473,-0.0473,0,-0.0121,-0.0118,-0.0146,-0.0145,-0.0154,-0.0209,-0.0202,-0.0236,-0.0276,-0.0284,-0.0316,-0.0369,-0.0401,-0.0421,-0.0438,-0.0449,-0.0458,-0.0459,-0.0483,-0.0484,-0.0485,-0.049,-0.0491,-0.0472,-0.0472,-0.0473,-0.0473,0,-0.0091,-0.0096,-0.0093,-0.0109,-0.0117,-0.0124,-0.0164,-0.0184,-0.0228,-0.0261,-0.0295,-0.0345,-0.0375,-0.0405,-0.0431,-0.0459,-0.046,-0.0474,-0.048,-0.0486,-0.049,-0.0492,-0.0472,-0.0472,-0.0472,-0.0472,0,0,-0.0059,-0.0069,-0.0073,-0.0071,-0.0099,-0.0103,-0.0117,-0.0138,-0.0146,-0.0214,-0.0224,-0.0298,-0.0334,-0.0356,-0.04,-0.0439,-0.047,-0.0468,-0.047,-0.0466,-0.0507,-0.0491,-0.0492,-0.0492,-0.0492,-0.0492,-0.0504,0,-0.0033,-0.0019,-0.0028,-0.002,-0.0014,-0.0045,-0.0046,-0.0073,-0.0114,-0.0139,-0.0214,-0.0247,-0.0315,-0.034,-0.0388,-0.0445,-0.0476,-0.0464,-0.0507,-0.0507,-0.0488,-0.0494,-0.0493,-0.0502,-0.0506,-0.0506,-0.0507,0,-0.0008,0.0,0.002,0.0032,0.0035,0.0026,0.0025,0.0016,-0.0025,-0.0055,-0.0108,-0.0161,-0.0233,-0.0293,-0.0392,-0.0383,-0.0442,-0.0492,-0.0494,-0.0483,-0.0496,-0.0499,-0.0506,-0.051,-0.051,-0.0509,-0.0509,0,0.0022,0.003,0.0047,0.0047,0.0054,0.0054,0.0049,0.0032,0.0038,-0.0016,-0.0022,-0.0104,-0.0157,-0.0243,-0.035,-0.0378,-0.044,-0.0488,-0.052,-0.0519,-0.0527,-0.0526,-0.0543,-0.0543,-0.0543,-0.0543,-0.0543,0,0.005,0.006,0.0049,0.0058,0.0087,0.0076,0.0098,0.0086,0.0077,0.0115,0.0008,0.0031,-0.0153,-0.0205,-0.0308,-0.0404,-0.0404,-0.0512,-0.0523,-0.0522,-0.052,-0.0535,-0.0534,-0.0544,-0.0544,-0.0544,-0.0544,0,0.0077,0.0066,0.0089,0.0095,0.0098,0.0109,0.013,0.0155,0.0128,0.0172,0.0158,0.0105,0.0046,-0.01,-0.0227,-0.0347,-0.0437,-0.0463,-0.044,-0.0448,-0.0516,-0.0515,-0.0528,-0.0528,-0.0527,-0.0527,-0.0527,0,0.0095,0.0107,0.0122,0.0142,0.0136,0.0151,0.0183,0.0173,0.0226,0.0262,0.0313,0.0248,0.0258,0.0066,-0.0146,-0.0322,-0.0353,-0.045,-0.0518,-0.0507,-0.0516,-0.0515,-0.0513,-0.0525,-0.0524,-0.0524,-0.0524,0,0.014,0.0133,0.0157,0.0203,0.0219,0.0269,0.0315,0.0385,0.0421,0.0456,0.0571,0.0571,0.0374,0.0188,-0.0101,-0.022,-0.0434,-0.0452,-0.0441,-0.0523,-0.0503,-0.0512,-0.0511,-0.0522,-0.0522,-0.0523,-0.0523,-0.0523,0.0173,0.0199,0.0228,0.0286,0.0312,0.0414,0.0499,0.0574,0.0684,0.0786,0.0784,0.0771,0.0497,0.0145,-0.0092,-0.0372,-0.0377,-0.0506,-0.0507,-0.0508,-0.05,-0.048,-0.0493,-0.0493,-0.0493,-0.0493,-0.0493,0,0.025,0.0279,0.0323,0.0401,0.0473,0.0468,0.062,0.0707,0.0877,0.0935,0.0983,0.0761,0.0506,0.0228,-0.02,-0.0465,-0.0504,-0.0528,-0.0543,-0.0543,-0.0543,-0.0538,-0.0541,-0.0541,-0.0542,-0.0542,0,0,0.0287,0.0358,0.0396,0.054,0.0602,0.0722,0.0833,0.0931,0.1003,0.1084,0.107,0.0966,0.061,0.0297,-0.0065,-0.0301,-0.0355,-0.0339,-0.0278,-0.0255,-0.0251,-0.0514,-0.0503,0,0,0,0,0]}],[{"header":{"parameterUnit":"m.s-1","parameterCategory":2,"la1":30.2991,"la2":30.254,"lo1":-89.0895,"lo2":-89.0444,"dy":0.0017,"dx":0.0017,"nx":28,"ny":28,"refTime":"2025-11-23T09:00:00:Z","depth":"4","parameterNumber":2,"parameterNumberName":"U-component_of_CURRENTS"},"data":[0,0,0,0,0,0,0,0,0,0,0,0,0,0,0,0,0,0,0,0,0,0,0,0,0,0,0,0,0,0,0,0,0,0,0,0,0,0,0,0,0,0,0,0,0,0,0,0,0,0,0,0,0,0,0,0,0,0,0.0775,0.0776,0,0.0829,0.0829,0.083,0.0873,0.0873,0.0874,0.0874,0.0929,0.093,0.093,0,0,0,0,0,0,0,0,0,0,0,0,0,0.0701,0.0702,0.0775,0.0776,0.0776,0.0829,0.0829,0.083,0.0873,0.0873,0.0874,0.0875,0.0928,0.0929,0.0931,0,0,0,0,0,0,0,0,0,0,0,0,0,0.074,0.0703,0.0775,0.0805,0.0809,0.0829,0.083,0.083,0.0872,0.0873,0.0874,0.0875,0.0928,0.0929,0.0931,0.0921,0,0,0.0935,0.0935,0,0,0,0,0,0,0,0,0.0738,0.0743,0.08,0.0803,0.0807,0.0847,0.0824,0.0861,0.0872,0.0846,0.0874,0.0875,0.0902,0.0905,0.0911,0.0924,0.0926,0.0935,0.0936,0.0936,0.0937,0,0,0,0,0,0,0,0.0735,0.0741,0.0794,0.0801,0.0805,0.0814,0.0821,0.0831,0.0867,0.0849,0.0852,0.0861,0.0904,0.091,0.0913,0.0927,0.0935,0.0936,0.0937,0.0937,0.1,0.1001,0,0,0,0,0,0,0.0732,0.0738,0.0793,0.0796,0.0776,0.0815,0.0822,0.0832,0.0867,0.0874,0.086,0.0863,0.0907,0.0911,0.0915,0.097,0.0936,0.0938,0.0938,0.0999,0.1,0.1001,0,0,0,0,0,0,0.073,0.0736,0.0791,0.077,0.0778,0.0816,0.0826,0.0832,0.0862,0.0876,0.0883,0.0886,0.0908,0.0913,0.0947,0.097,0.0938,0.0939,0.0998,0.0999,0.1001,0.104,0,0,0,0,0,0,0.0728,0.0735,0.0748,0.077,0.0779,0.0817,0.0825,0.0833,0.0865,0.087,0.09,0.0905,0.0909,0.0945,0.0948,0.0972,0.0941,0.0997,0.0999,0.1,0.1038,0.1043,0.1047,0,0,0,0,0,0.0725,0.0735,0.0748,0.0755,0.0793,0.0818,0.0824,0.0852,0.0866,0.0881,0.0906,0.0905,0.0957,0.0947,0.095,0.0975,0.0996,0.0998,0.1,0.1036,0.1042,0.1047,0,0,0,0,0,0,0.0711,0.0742,0.0756,0.0777,0.0803,0.0826,0.0845,0.0863,0.0893,0.0905,0.0916,0.0923,0.0961,0.096,0.0949,0.0997,0.0976,0.0979,0.1002,0.1008,0.1013,0.1026,0.0942,0,0,0,0,0,0.0713,0.0732,0.076,0.078,0.0794,0.0823,0.0841,0.0862,0.0888,0.0903,0.0924,0.0946,0.0966,0.0983,0.0997,0.1023,0.1036,0.1041,0.1045,0.1049,0.1063,0.1101,0.111,0.1007,0.1007,0.1007,0,0,0.0712,0.0733,0.0745,0.0779,0.0802,0.0825,0.0836,0.087,0.0898,0.0903,0.0949,0.0963,0.0976,0.1009,0.1026,0.1016,0.1084,0.1052,0.1055,0.1067,0.1104,0.1114,0.1123,0.1009,0.1008,0.1008,0,0,0.0715,0.0741,0.0757,0.0781,0.0821,0.084,0.0855,0.0892,0.092,0.0959,0.0971,0.1004,0.1032,0.105,0.1061,0.1098,0.1106,0.1102,0.114,0.1177,0.1186,0.1194,0.122,0.1231,0.1106,0.1106,0.1106,0,0.0714,0.0741,0.0766,0.0788,0.0814,0.0849,0.0876,0.0904,0.095,0.0976,0.0981,0.1044,0.1053,0.1099,0.1115,0.111,0.1131,0.1118,0.1184,0.1192,0.12,0.1225,0.1236,0.1108,0.1108,0.1107,0.1107,0,0.0726,0.0756,0.0769,0.081,0.0838,0.0869,0.091,0.0947,0.0984,0.1013,0.1074,0.1095,0.1133,0.1141,0.1142,0.1202,0.1198,0.1184,0.1171,0.1213,0.1236,0.1247,0.1111,0.111,0.111,0.1109,0,0,0.0701,0.0765,0.0771,0.0799,0.0857,0.0879,0.0933,0.0988,0.103,0.1078,0.1135,0.1175,0.1196,0.121,0.122,0.1256,0.1323,0.1251,0.1251,0.128,0.1408,0.1347,0.1353,0.1325,0.1327,0.1329,0.1402,0,0.0706,0.075,0.0785,0.0833,0.0861,0.0914,0.0959,0.1014,0.1067,0.1128,0.1173,0.1228,0.1219,0.1251,0.1285,0.1311,0.1353,0.1304,0.1362,0.1364,0.1307,0.1364,0.1336,0.141,0.1412,0.1414,0.1415,0,0.0703,0.0739,0.0785,0.0855,0.0873,0.0908,0.0993,0.1041,0.1129,0.1175,0.1241,0.1276,0.1344,0.1331,0.1408,0.138,0.1406,0.1424,0.1427,0.1366,0.1323,0.136,0.1434,0.1433,0.1431,0.143,0.1429,0,0.0669,0.0737,0.0777,0.08,0.0881,0.092,0.0972,0.1057,0.1109,0.1219,0.1269,0.1342,0.1401,0.1438,0.1479,0.1452,0.1566,0.1522,0.1496,0.1491,0.1505,0.1495,0.1594,0.1594,0.1594,0.1594,0.1593,0,0.0655,0.0687,0.0767,0.0787,0.0844,0.0909,0.0979,0.1046,0.1145,0.1216,0.1294,0.1363,0.1437,0.1504,0.1514,0.1543,0.1593,0.1522,0.1514,0.1518,0.1509,0.1512,0.1501,0.1596,0.1596,0.1595,0.1595,0,0.0607,0.066,0.0707,0.0796,0.0828,0.087,0.0979,0.103,0.1133,0.1233,0.1277,0.1402,0.1494,0.1553,0.1634,0.1592,0.162,0.1624,0.1642,0.1632,0.1507,0.1498,0.1579,0.1578,0.1577,0.1576,0.1575,0,0.0585,0.0604,0.0698,0.0734,0.0778,0.0852,0.0906,0.1017,0.1078,0.1248,0.1294,0.1432,0.1507,0.1565,0.1627,0.166,0.1648,0.1643,0.1557,0.1525,0.1511,0.1503,0.1495,0.1573,0.1573,0.1572,0.1572,0,0.0541,0.0577,0.0617,0.0692,0.0753,0.0814,0.0906,0.0942,0.1084,0.1179,0.1294,0.1363,0.1479,0.1537,0.1598,0.1608,0.1624,0.163,0.1631,0.1551,0.1519,0.1504,0.1497,0.1568,0.1569,0.1569,0.1569,0,0.0505,0.0522,0.0583,0.0645,0.0716,0.0773,0.0823,0.0914,0.0987,0.1172,0.1211,0.1358,0.1476,0.1515,0.1558,0.1579,0.1542,0.1473,0.1481,0.1486,0.1423,0.1367,0.1383,0,0,0,0,0,0.0467,0.0488,0.0539,0.0608,0.0675,0.0724,0.0826,0.088,0.1012,0.1069,0.1139,0.1243,0.134,0.1409,0.1413,0.1509,0.1538,0.1505,0.1459,0.1546,0.1551,0.1486,0,0,0,0,0,0,0.0444,0.0481,0.0516,0.0564,0.0606,0.0679,0.0742,0.083,0.0868,0.1005,0.1064,0.1167,0.1274,0.1329,0.1389,0.141,0.1356,0.1591,0.1588,0.1544,0.1548,0.1552,0.1486,0,0,0,0,0]},{"header":{"parameterUnit":"m.s-1","parameterCategory":2,"la1":30.2991,"la2":30.254,"lo1":-89.0895,"lo2":-89.0444,"dy":0.0017,"dx":0.0017,"nx":28,"ny":28,"refTime":"2025-11-23T09:00:00:Z","depth":"4","parameterNumber":3,"parameterNumberName":"V-component_of_CURRENTS"},"data":[0,0,0,0,0,0,0,0,0,0,0,0,0,0,0,0,0,0,0,0,0,0,0,0,0,0,0,0,0,0,0,0,0,0,0,0,0,0,0,0,0,0,0,0,0,0,0,0,0,0,0,0,0,0,0,0,0,0,0.0207,0.0207,0,0.0186,0.0186,0.0185,0.0164,0.0164,0.0163,0.0163,0.0128,0.0127,0.0127,0,0,0,0,0,0,0,0,0,0,0,0,0,0.0204,0.0205,0.0208,0.0207,0.0207,0.0186,0.0186,0.0185,0.0164,0.0164,0.0163,0.0163,0.0128,0.0127,0.0127,0,0,0,0,0,0,0,0,0,0,0,0,0,0.0197,0.0205,0.0208,0.0194,0.0192,0.0186,0.0186,0.0185,0.0164,0.0164,0.0163,0.0163,0.0128,0.0127,0.0126,0.0129,0,0,0.0123,0.0123,0,0,0,0,0,0,0,0,0.0197,0.0197,0.0196,0.0195,0.0193,0.0177,0.0171,0.0166,0.0164,0.0175,0.0163,0.0163,0.0143,0.0141,0.0138,0.0127,0.0126,0.0123,0.0123,0.0122,0.0122,0,0,0,0,0,0,0,0.0198,0.0197,0.0199,0.0196,0.0194,0.018,0.0178,0.017,0.0162,0.0174,0.0172,0.017,0.0142,0.0139,0.0137,0.0125,0.0123,0.0122,0.0122,0.0121,0.0091,0.0091,0,0,0,0,0,0,0.0202,0.0198,0.02,0.0198,0.0194,0.018,0.0179,0.0183,0.0162,0.0158,0.017,0.0169,0.0141,0.0138,0.0136,0.0136,0.0122,0.0121,0.0121,0.0091,0.0091,0.0091,0,0,0,0,0,0,0.0202,0.0203,0.02,0.0197,0.0196,0.0181,0.0185,0.0182,0.0179,0.0159,0.0155,0.0169,0.0141,0.0137,0.0128,0.0135,0.0121,0.012,0.0091,0.0091,0.0091,0.0137,0,0,0,0,0,0,0.0202,0.0203,0.0209,0.0198,0.0196,0.0201,0.0186,0.0182,0.0178,0.0176,0.0157,0.0154,0.014,0.013,0.0127,0.0133,0.0119,0.0092,0.0091,0.0091,0.0136,0.0139,0.0141,0,0,0,0,0,0.0203,0.0217,0.0209,0.0209,0.0204,0.0202,0.02,0.0187,0.0178,0.0181,0.0165,0.0154,0.0125,0.013,0.0126,0.0132,0.0092,0.0091,0.0091,0.0135,0.0138,0.0141,0,0,0,0,0,0,0.022,0.0215,0.0207,0.0219,0.0211,0.0198,0.0202,0.019,0.018,0.0178,0.0157,0.0152,0.0144,0.013,0.0135,0.0119,0.0105,0.0104,0.0139,0.0142,0.0144,0.0165,0.0118,0,0,0,0,0,0.0226,0.0235,0.0223,0.0233,0.0231,0.0215,0.0213,0.0204,0.0193,0.0188,0.0174,0.0155,0.014,0.0135,0.0119,0.0118,0.0096,0.0115,0.0118,0.012,0.0133,0.01,0.0101,0.0089,0.0089,0.0089,0,0,0.0236,0.0234,0.0239,0.0237,0.023,0.0237,0.0213,0.0214,0.022,0.0186,0.019,0.0164,0.0139,0.0134,0.0129,0.0125,0.0109,0.0119,0.0122,0.0134,0.0099,0.0101,0.0102,0.0089,0.0089,0.0089,0,0,0.0263,0.0258,0.0273,0.027,0.0263,0.0255,0.0256,0.0243,0.0237,0.0235,0.0208,0.0188,0.017,0.0154,0.0142,0.0148,0.012,0.0138,0.0174,0.0141,0.0142,0.0143,0.011,0.0107,0.0143,0.0143,0.0143,0,0.0273,0.0292,0.0277,0.0289,0.0294,0.0266,0.0284,0.0275,0.0261,0.0261,0.0242,0.0207,0.0181,0.0175,0.0173,0.0156,0.0132,0.0168,0.0146,0.0146,0.0146,0.0112,0.0109,0.0145,0.0145,0.0145,0.0145,0,0.0309,0.0323,0.0333,0.0341,0.0343,0.0353,0.034,0.0338,0.0323,0.0312,0.0298,0.0258,0.0239,0.0221,0.02,0.0189,0.0169,0.0151,0.0144,0.015,0.0113,0.0109,0.0149,0.0148,0.0147,0.0147,0,0,0.0331,0.0355,0.0357,0.0373,0.0372,0.038,0.039,0.0393,0.0401,0.0373,0.0378,0.0339,0.0311,0.0296,0.0259,0.0231,0.0199,0.0197,0.0194,0.0173,0.0127,0.0078,0.0068,0.0177,0.0177,0.0176,0.0099,0,0.0362,0.0404,0.0406,0.0443,0.0463,0.0449,0.0464,0.046,0.0446,0.044,0.0395,0.0379,0.0341,0.0325,0.0293,0.022,0.0191,0.0222,0.0116,0.0113,0.0076,0.0062,0.0175,0.0096,0.0095,0.0094,0.0093,0,0.0393,0.0419,0.0465,0.05,0.0507,0.0526,0.0544,0.0552,0.0535,0.0521,0.0497,0.0454,0.041,0.0369,0.027,0.0291,0.022,0.0161,0.0157,0.0096,0.0056,0.0087,0.0085,0.0086,0.0086,0.0087,0.0087,0,0.0414,0.0459,0.0501,0.0512,0.0544,0.0566,0.058,0.058,0.0586,0.0568,0.0556,0.0507,0.0462,0.0383,0.0254,0.0264,0.013,0.0126,0.0019,0.0014,0.0063,0.0063,0.006,0.006,0.006,0.006,0.006,0,0.0442,0.0475,0.0518,0.054,0.0589,0.0601,0.0641,0.0643,0.0642,0.0642,0.0599,0.0567,0.0461,0.0366,0.0268,0.012,0.0138,0.0024,-0.001,0.0082,0.0086,0.006,0.0061,0.0057,0.0058,0.0058,0.0059,0,0.0451,0.0481,0.053,0.0581,0.06,0.0633,0.0675,0.0693,0.0692,0.0685,0.0676,0.0601,0.0477,0.0356,0.0203,0.0122,-0.0005,-0.0063,0.0037,0.001,-0.0096,-0.0092,-0.0168,-0.0171,-0.0173,-0.0174,-0.0176,0,0.0457,0.0485,0.0553,0.0581,0.0607,0.0657,0.0685,0.0711,0.072,0.0692,0.0678,0.0572,0.0501,0.0262,0.0135,-0.0052,-0.0082,-0.014,-0.0104,-0.0095,-0.012,-0.0112,-0.0106,-0.0179,-0.018,-0.018,-0.0181,0,0.0461,0.0488,0.0526,0.0581,0.0625,0.0672,0.0712,0.0725,0.0735,0.0738,0.0664,0.0548,0.0399,0.0239,0.0079,-0.0052,-0.0093,-0.0162,-0.0157,-0.0123,-0.0109,-0.013,-0.0121,-0.0188,-0.0187,-0.0186,-0.0186,0,0.0453,0.0476,0.0521,0.0566,0.0622,0.066,0.0695,0.07,0.0712,0.069,0.0656,0.0519,0.0446,0.0234,0.0088,-0.005,-0.007,-0.0097,-0.0096,-0.009,-0.0048,-0.0017,-0.0098,0,0,0,0,0,0.0434,0.0451,0.0496,0.0545,0.0601,0.0632,0.0691,0.0719,0.0736,0.0685,0.0675,0.0538,0.0321,0.0232,0.0087,0.0047,-0.0099,-0.0129,-0.013,-0.0227,-0.0219,-0.0188,0,0,0,0,0,0,0.0417,0.0455,0.0479,0.0512,0.054,0.0597,0.064,0.066,0.0638,0.0641,0.0532,0.049,0.0284,0.0394,0.0075,0.0035,0.0013,-0.0222,-0.0226,-0.0231,-0.0224,-0.0217,-0.0183,0,0,0,0,0]}]]